Location: Schommer Observatory
(40.5200°N, 74.4500°W)
Time: 15:12:02
(UTC-04:00)

Envisat - Pass Details

Date: 19 May 2018
Orbit: 764 x 766 km, 98.2° (Epoch: 16 October)

Event Time Altitude Azimuth Distance (km) Brightness Sun altitude
Rises 21:05:07 0° 193° (SSW) 3,218 6.0 -9.5°
Reaches altitude 10° 21:07:41 10° 204° (SSW) 2,297 5.3 -9.9°
Maximum altitude 21:12:05 30° 264° (W) 1,365 4.9 -10.5°
Drops below altitude 10° 21:16:30 10° 325° (NW) 2,311 6.8 -11.2°
Sets 21:19:06 0° 336° (NNW) 3,241 7.5 -11.6°
